| time (UTC) | temp C | wind direction | speed KPH | gust KPH | rain 1hr cm | rain 24hr cm | rain mn cm | humidity % | barometer mb |
| 20260507084403 | 8 | 163 | 0.0 | 3.2 | 0.00 | 0.00 | 0.05 | 93 | 984.0 |
| 20260507083903 | 8 | 116 | 0.0 | 0.0 | 0.00 | 0.00 | 0.05 | 93 | 984.0 |
| 20260507083402 | 8 | 116 | 0.0 | 0.0 | 0.00 | 0.00 | 0.05 | 93 | 984.0 |
| 20260507082902 | 8 | 116 | 0.0 | 0.0 | 0.00 | 0.00 | 0.05 | 93 | 984.0 |
| 20260507082403 | 8 | 116 | 0.0 | 0.0 | 0.00 | 0.00 | 0.05 | 93 | 984.0 |
| 20260507081903 | 8 | 116 | 0.0 | 1.6 | 0.00 | 0.00 | 0.05 | 93 | 984.0 |
| 20260507081402 | 8 | 116 | 0.0 | 0.0 | 0.00 | 0.00 | 0.05 | 93 | 984.0 |
| 20260507080902 | 8 | 116 | 0.0 | 0.0 | 0.00 | 0.00 | 0.05 | 93 | 984.0 |
| 20260507080403 | 8 | 116 | 0.0 | 0.0 | 0.13 | 0.00 | 0.05 | 93 | 984.0 |
| 20260507075902 | 8 | 116 | 0.0 | 0.0 | 0.13 | 0.00 | 0.05 | 93 | 984.0 |
| 20260507075402 | 8 | 116 | 0.0 | 1.6 | 0.00 | 0.00 | 0.03 | 93 | 984.0 |
| 20260507074902 | 8 | 116 | 1.6 | 1.6 | 0.00 | 0.00 | 0.03 | 92 | 984.0 |
| 20260507074402 | 8 | 117 | 0.0 | 1.6 | 0.00 | 0.00 | 0.03 | 93 | 984.0 |
| 20260507073903 | 9 | 128 | 0.0 | 0.0 | 0.00 | 0.00 | 0.03 | 93 | 984.0 |
| 20260507073404 | 9 | 128 | 0.0 | 0.0 | 0.00 | 0.00 | 0.03 | 93 | 984.0 |
| 20260507072903 | 9 | 94 | 0.0 | 0.0 | 0.00 | 0.00 | 0.03 | 93 | 984.0 |
| 20260507072404 | 9 | 94 | 0.0 | 0.0 | 0.00 | 0.00 | 0.03 | 92 | 984.0 |
| 20260507071903 | 9 | 90 | 0.0 | 1.6 | 0.00 | 0.00 | 0.03 | 92 | 984.0 |
| 20260507071402 | 9 | 92 | 1.6 | 1.6 | 0.00 | 0.00 | 0.03 | 92 | 984.0 |
| 20260507070902 | 9 | 96 | 0.0 | 0.0 | 0.18 | 0.00 | 0.03 | 91 | 984.0 |
| 20260507070402 | 9 | 96 | 0.0 | 1.6 | 0.18 | 0.00 | 0.03 | 90 | 984.0 |
| 20260507065902 | 10 | 111 | 0.0 | 1.6 | 0.00 | 0.00 | 0.00 | 89 | 984.0 |
| 20260507065402 | 10 | 112 | 0.0 | 1.6 | 0.00 | 0.00 | 0.00 | 88 | 984.0 |
| 20260507064902 | 10 | 62 | 3.2 | 4.8 | 0.00 | 0.00 | 0.00 | 87 | 984.0 |
| 20260507064402 | 10 | 102 | 0.0 | 3.2 | 0.00 | 0.00 | 0.00 | 88 | 984.0 |
| 20260507063902 | 10 | 107 | 0.0 | 0.0 | 0.00 | 0.00 | 0.00 | 90 | 983.0 |
| 20260507063402 | 10 | 107 | 0.0 | 0.0 | 0.00 | 0.00 | 0.00 | 88 | 983.0 |
| 20260507062902 | 10 | 107 | 0.0 | 1.6 | 0.00 | 0.00 | 0.00 | 89 | 983.0 |
| 20260507062403 | 10 | 106 | 0.0 | 1.6 | 0.00 | 0.00 | 0.00 | 89 | 983.0 |
| 20260507061903 | 10 | 97 | 0.0 | 0.0 | 0.00 | 0.00 | 0.00 | 90 | 983.0 |
| 20260507061402 | 10 | 97 | 0.0 | 1.6 | 0.00 | 0.00 | 0.00 | 90 | 983.0 |
| 20260507060902 | 10 | 97 | 0.0 | 1.6 | 0.00 | 0.00 | 0.00 | 90 | 984.0 |
| 20260507060402 | 10 | 97 | 0.0 | 0.0 | 0.00 | 0.00 | 0.00 | 91 | 984.0 |
| 20260507055904 | 10 | 97 | 0.0 | 0.0 | 0.00 | 0.00 | 0.00 | 90 | 984.0 |
| 20260507055403 | 10 | 94 | 1.6 | 3.2 | 0.00 | 0.00 | 0.00 | 91 | 984.0 |
| 20260507054903 | 10 | 119 | 1.6 | 1.6 | 0.00 | 0.00 | 0.00 | 90 | 984.0 |
| 20260507054402 | 10 | 119 | 0.0 | 1.6 | 0.00 | 0.00 | 0.00 | 90 | 984.0 |
| 20260507053902 | 10 | 119 | 0.0 | 0.0 | 0.00 | 0.00 | 0.00 | 90 | 984.0 |
| 20260507053403 | 10 | 119 | 0.0 | 1.6 | 0.00 | 0.00 | 0.00 | 90 | 984.0 |
| 20260507052903 | 10 | 116 | 0.0 | 0.0 | 0.00 | 0.00 | 0.00 | 90 | 984.0 |
| 20260507052402 | 10 | 132 | 0.0 | 1.6 | 0.00 | 0.00 | 0.00 | 90 | 984.0 |
| 20260507051902 | 10 | 132 | 0.0 | 0.0 | 0.00 | 0.00 | 0.00 | 90 | 984.0 |
| 20260507051404 | 10 | 132 | 0.0 | 1.6 | 0.00 | 0.00 | 0.00 | 90 | 984.0 |
| 20260507050903 | 10 | 132 | 0.0 | 0.0 | 0.00 | 0.00 | 0.00 | 90 | 984.0 |
| 20260507050403 | 10 | 132 | 0.0 | 1.6 | 0.00 | 0.00 | 0.00 | 91 | 984.0 |
| 20260507045903 | 10 | 132 | 0.0 | 0.0 | 0.00 | 0.00 | 0.00 | 91 | 984.0 |
| 20260507045403 | 10 | 132 | 0.0 | 0.0 | 0.00 | 0.00 | 0.00 | 91 | 984.0 |
| 20260507044902 | 11 | 132 | 0.0 | 1.6 | 0.00 | 0.00 | 0.00 | 90 | 984.0 |
| 20260507044402 | 11 | 132 | 1.6 | 1.6 | 0.00 | 0.00 | 0.00 | 91 | 984.0 |
| 20260507043903 | 11 | 132 | 0.0 | 0.0 | 0.00 | 0.00 | 0.00 | 91 | 984.0 |
| 20260507043402 | 11 | 132 | 0.0 | 1.6 | 0.00 | 0.00 | 0.00 | 91 | 984.0 |
| 20260507042902 | 11 | 131 | 1.6 | 3.2 | 0.00 | 0.00 | 0.00 | 90 | 984.0 |
| 20260507042402 | 11 | 124 | 1.6 | 0.0 | 0.00 | 0.00 | 0.00 | 92 | 984.0 |
| 20260507041904 | 11 | 124 | 1.6 | 1.6 | 0.00 | 0.00 | 0.00 | 91 | 984.0 |
| 20260507041402 | 11 | 124 | 0.0 | 0.0 | 0.00 | 0.00 | 0.00 | 90 | 984.0 |
| 20260507040902 | 11 | 115 | 0.0 | 1.6 | 0.00 | 0.00 | 0.00 | 91 | 984.0 |
| 20260507040402 | 11 | 115 | 0.0 | 0.0 | 0.00 | 0.00 | 0.00 | 90 | 984.0 |
| 20260507035903 | 11 | 115 | 0.0 | 1.6 | 0.00 | 0.00 | 0.56 | 90 | 984.0 |
| 20260507035403 | 12 | 115 | 1.6 | 1.6 | 0.13 | 0.00 | 0.56 | 90 | 984.0 |
| 20260507034902 | 12 | 156 | 1.6 | 4.8 | 0.13 | 0.00 | 0.56 | 90 | 984.0 |
| 20260507034402 | 12 | 182 | 1.6 | 4.8 | 0.00 | 0.00 | 0.53 | 92 | 984.0 |
| 20260507033903 | 12 | 179 | 0.0 | 1.6 | 0.00 | 0.00 | 0.53 | 92 | 984.0 |
| 20260507033403 | 12 | 179 | 1.6 | 3.2 | 0.00 | 0.00 | 0.53 | 92 | 984.0 |
| 20260507032903 | 12 | 179 | 0.0 | 3.2 | 0.00 | 0.00 | 0.53 | 92 | 984.0 |
| 20260507032402 | 12 | 184 | 1.6 | 3.2 | 0.00 | 0.00 | 0.53 | 93 | 984.0 |
| 20260507031902 | 12 | 176 | 0.0 | 0.0 | 0.00 | 0.00 | 0.53 | 93 | 984.0 |
| 20260507031411 | 12 | 176 | 0.0 | 1.6 | 0.00 | 0.00 | 0.53 | 93 | 983.0 |
| 20260507030902 | 13 | 176 | 1.6 | 1.6 | 0.00 | 0.00 | 0.53 | 93 | 983.0 |
| 20260507030402 | 13 | 177 | 0.0 | 3.2 | 0.00 | 0.00 | 0.53 | 91 | 984.0 |
| 20260507025902 | 13 | 178 | 0.0 | 0.0 | 0.00 | 0.00 | 0.53 | 91 | 984.0 |
| 20260507024916 | 13 | 163 | 0.0 | 0.0 | 0.00 | 0.00 | 0.53 | 90 | 984.0 |
| 20260507024403 | 13 | 155 | 0.0 | 3.2 | 0.00 | 0.00 | 0.53 | 90 | 983.0 |
| 20260507023903 | 14 | 158 | 1.6 | 4.8 | 0.00 | 0.00 | 0.53 | 90 | 984.0 |
| 20260507023402 | 14 | 137 | 0.0 | 1.6 | 0.00 | 0.00 | 0.53 | 89 | 984.0 |
| 20260507022903 | 15 | 165 | 1.6 | 1.6 | 0.00 | 0.00 | 0.53 | 91 | 983.0 |
| 20260507022402 | 15 | 161 | 1.6 | 1.6 | 0.00 | 0.00 | 0.53 | 92 | 983.0 |
| 20260507021903 | 15 | 163 | 0.0 | 1.6 | 0.00 | 0.00 | 0.53 | 92 | 983.0 |
| 20260507021402 | 15 | 158 | 3.2 | 11.3 | 0.00 | 0.00 | 0.53 | 93 | 983.0 |
| 20260507020902 | 15 | 33 | 0.0 | 3.2 | 0.00 | 0.00 | 0.53 | 93 | 983.0 |
| 20260507020403 | 15 | 164 | 0.0 | 1.6 | 0.00 | 0.00 | 0.53 | 93 | 983.0 |
| 20260507015902 | 15 | 169 | 1.6 | 1.6 | 0.00 | 0.00 | 0.53 | 93 | 983.0 |
| 20260507015403 | 15 | 169 | 1.6 | 4.8 | 0.00 | 0.00 | 0.53 | 93 | 983.0 |
| 20260507014904 | 15 | 183 | 3.2 | 4.8 | 0.00 | 0.00 | 0.53 | 94 | 983.0 |
| 20260507014403 | 15 | 187 | 1.6 | 1.6 | 0.00 | 0.00 | 0.53 | 94 | 983.0 |
| 20260507013903 | 15 | 187 | 3.2 | 3.2 | 0.00 | 0.00 | 0.53 | 94 | 983.0 |
| 20260507013402 | 15 | 188 | 0.0 | 1.6 | 0.00 | 0.00 | 0.53 | 94 | 983.0 |
| 20260507012904 | 15 | 189 | 1.6 | 1.6 | 0.00 | 0.00 | 0.53 | 94 | 983.0 |
| 20260507012403 | 15 | 185 | 1.6 | 3.2 | 0.00 | 0.00 | 0.53 | 94 | 983.0 |
| 20260507011902 | 15 | 182 | 1.6 | 1.6 | 0.00 | 0.00 | 0.53 | 94 | 983.0 |
| 20260507011403 | 15 | 177 | 1.6 | 1.6 | 0.00 | 0.00 | 0.53 | 94 | 983.0 |
| 20260507010904 | 15 | 177 | 0.0 | 3.2 | 0.00 | 0.00 | 0.53 | 94 | 983.0 |
| 20260507010404 | 14 | 185 | 1.6 | 1.6 | 0.00 | 0.00 | 0.53 | 94 | 982.0 |
| 20260507005902 | 15 | 185 | 1.6 | 1.6 | 0.00 | 0.00 | 0.53 | 94 | 983.0 |
| 20260507005402 | 15 | 186 | 1.6 | 3.2 | 0.00 | 0.00 | 0.53 | 94 | 983.0 |
| 20260507004902 | 14 | 177 | 3.2 | 4.8 | 0.00 | 0.00 | 0.53 | 94 | 983.0 |
| 20260507004403 | 14 | 183 | 3.2 | 3.2 | 0.00 | 0.00 | 0.53 | 94 | 983.0 |
| 20260507003902 | 14 | 180 | 1.6 | 1.6 | 0.00 | 0.00 | 0.53 | 94 | 983.0 |
| 20260507003403 | 14 | 182 | 3.2 | 3.2 | 0.00 | 0.00 | 0.53 | 94 | 983.0 |
| 20260507002903 | 14 | 170 | 3.2 | 3.2 | 0.00 | 0.00 | 0.53 | 94 | 983.0 |
| 20260507002402 | 14 | 176 | 1.6 | 3.2 | 0.00 | 0.00 | 0.53 | 93 | 983.0 |
| 20260507001903 | 14 | 175 | 3.2 | 4.8 | 0.00 | 0.00 | 0.53 | 94 | 983.0 |
| 20260507001403 | 14 | 169 | 3.2 | 6.4 | 0.00 | 0.00 | 0.53 | 94 | 983.0 |
| 20260507000902 | 14 | 175 | 3.2 | 4.8 | 0.00 | 0.00 | 0.53 | 94 | 983.0 |
| 20260507000405 | 14 | 172 | 3.2 | 3.2 | 0.00 | 0.00 | 0.53 | 94 | 983.0 |
| 20260506235902 | 14 | 175 | 1.6 | 3.2 | 0.00 | 0.00 | 0.53 | 94 | 983.0 |
| 20260506235402 | 14 | 175 | 3.2 | 3.2 | 0.00 | 0.00 | 0.53 | 94 | 982.0 |
| 20260506234902 | 14 | 165 | 3.2 | 3.2 | 0.00 | 0.00 | 0.53 | 93 | 982.0 |
| 20260506234403 | 14 | 165 | 3.2 | 4.8 | 0.00 | 0.00 | 0.53 | 93 | 982.0 |
| 20260506233902 | 14 | 170 | 4.8 | 4.8 | 0.00 | 0.00 | 0.53 | 93 | 982.0 |
| 20260506233402 | 14 | 178 | 4.8 | 6.4 | 0.00 | 0.00 | 0.53 | 94 | 982.0 |
| 20260506232902 | 14 | 172 | 3.2 | 3.2 | 0.00 | 0.00 | 0.53 | 94 | 982.0 |
| 20260506232402 | 14 | 196 | 4.8 | 4.8 | 0.00 | 0.00 | 0.53 | 94 | 982.0 |
| 20260506231903 | 14 | 206 | 1.6 | 3.2 | 0.00 | 0.00 | 0.53 | 94 | 982.0 |
| 20260506231402 | 14 | 198 | 1.6 | 3.2 | 0.00 | 0.00 | 0.53 | 94 | 982.0 |
| 20260506230902 | 14 | 189 | 1.6 | 3.2 | 0.00 | 0.00 | 0.53 | 94 | 982.0 |
| 20260506230402 | 14 | 188 | 3.2 | 3.2 | 0.00 | 0.00 | 0.53 | 94 | 982.0 |
| 20260506225903 | 14 | 188 | 1.6 | 3.2 | 0.18 | 0.00 | 0.53 | 94 | 982.0 |
| 20260506225403 | 14 | 188 | 3.2 | 3.2 | 0.18 | 0.00 | 0.53 | 94 | 982.0 |
| 20260506224903 | 14 | 188 | 3.2 | 3.2 | 0.00 | 0.00 | 0.51 | 94 | 982.0 |
| 20260506224402 | 14 | 188 | 3.2 | 3.2 | 0.00 | 0.00 | 0.51 | 94 | 982.0 |
| 20260506223903 | 14 | 188 | 1.6 | 3.2 | 0.13 | 0.00 | 0.51 | 94 | 982.0 |
| 20260506223402 | 14 | 188 | 0.0 | 1.6 | 0.00 | 0.00 | 0.48 | 94 | 982.0 |
| 20260506222903 | 14 | 189 | 0.0 | 1.6 | 0.18 | 0.00 | 0.48 | 94 | 982.0 |
| 20260506222403 | 14 | 189 | 1.6 | 3.2 | 0.30 | 0.00 | 0.48 | 94 | 982.0 |
| 20260506221902 | 14 | 190 | 1.6 | 1.6 | 0.13 | 0.00 | 0.46 | 94 | 982.0 |
| 20260506221402 | 14 | 197 | 1.6 | 3.2 | 0.18 | 0.00 | 0.43 | 94 | 982.0 |
| 20260506220903 | 14 | 179 | 3.2 | 3.2 | 0.00 | 0.00 | 0.41 | 94 | 982.0 |
| 20260506220402 | 14 | 175 | 1.6 | 1.6 | 0.00 | 0.00 | 0.41 | 94 | 982.0 |
| 20260506215903 | 14 | 176 | 3.2 | 3.2 | 0.00 | 0.00 | 0.41 | 94 | 982.0 |
| 20260506215403 | 14 | 182 | 1.6 | 3.2 | 0.00 | 0.00 | 0.41 | 94 | 982.0 |
| 20260506214902 | 14 | 182 | 3.2 | 3.2 | 0.00 | 0.00 | 0.41 | 94 | 982.0 |
| 20260506214402 | 14 | 182 | 1.6 | 3.2 | 0.00 | 0.00 | 0.41 | 93 | 982.0 |
| 20260506213903 | 14 | 190 | 4.8 | 6.4 | 0.00 | 0.00 | 0.41 | 93 | 982.0 |
| 20260506213403 | 14 | 186 | 3.2 | 4.8 | 0.00 | 0.00 | 0.41 | 93 | 983.0 |
| 20260506212902 | 14 | 188 | 3.2 | 3.2 | 0.18 | 0.00 | 0.41 | 93 | 982.0 |
| 20260506212403 | 14 | 200 | 1.6 | 3.2 | 0.18 | 0.00 | 0.41 | 93 | 983.0 |
| 20260506211902 | 14 | 177 | 1.6 | 3.2 | 0.00 | 0.00 | 0.38 | 93 | 983.0 |
| 20260506211402 | 14 | 185 | 1.6 | 3.2 | 0.13 | 0.00 | 0.38 | 93 | 983.0 |
| 20260506210903 | 14 | 186 | 1.6 | 3.2 | 0.00 | 0.00 | 0.36 | 93 | 983.0 |
| 20260506210403 | 14 | 187 | 3.2 | 3.2 | 0.00 | 0.00 | 0.36 | 93 | 983.0 |
| 20260506205903 | 14 | 194 | 0.0 | 3.2 | 0.00 | 0.00 | 0.36 | 92 | 983.0 |
| 20260506205402 | 14 | 199 | 0.0 | 3.2 | 0.18 | 0.00 | 0.36 | 92 | 983.0 |
| 20260506204903 | 14 | 193 | 1.6 | 3.2 | 0.18 | 0.00 | 0.36 | 92 | 983.0 |
| 20260506204403 | 14 | 176 | 3.2 | 3.2 | 0.00 | 0.00 | 0.33 | 92 | 983.0 |
| 20260506203902 | 14 | 177 | 1.6 | 3.2 | 0.00 | 0.00 | 0.33 | 92 | 983.0 |
| 20260506203403 | 14 | 237 | 1.6 | 3.2 | 0.00 | 0.00 | 0.33 | 92 | 983.0 |
| 20260506202903 | 14 | 181 | 3.2 | 4.8 | 0.00 | 0.00 | 0.33 | 92 | 983.0 |
| 20260506202402 | 14 | 178 | 3.2 | 3.2 | 0.00 | 0.00 | 0.33 | 92 | 983.0 |
| 20260506201903 | 14 | 281 | 6.4 | 14.5 | 0.00 | 0.00 | 0.33 | 92 | 983.0 |
| 20260506201402 | 14 | 159 | 1.6 | 6.4 | 0.00 | 0.00 | 0.33 | 92 | 983.0 |
| 20260506200902 | 14 | 190 | 3.2 | 4.8 | 0.00 | 0.00 | 0.33 | 92 | 983.0 |
| 20260506200403 | 14 | 183 | 1.6 | 1.6 | 0.00 | 0.00 | 0.33 | 91 | 983.0 |
| 20260506195903 | 14 | 218 | 3.2 | 6.4 | 0.13 | 0.00 | 0.33 | 91 | 983.0 |
| 20260506195404 | 14 | 179 | 1.6 | 3.2 | 0.13 | 0.00 | 0.33 | 92 | 983.0 |
| 20260506194903 | 14 | 182 | 3.2 | 3.2 | 0.00 | 0.00 | 0.30 | 91 | 983.0 |
| 20260506194402 | 14 | 188 | 3.2 | 4.8 | 0.00 | 0.00 | 0.30 | 91 | 983.0 |
| 20260506193903 | 14 | 197 | 1.6 | 3.2 | 0.00 | 0.00 | 0.30 | 91 | 984.0 |
| 20260506193403 | 14 | 175 | 3.2 | 16.1 | 0.00 | 0.00 | 0.30 | 90 | 984.0 |
| 20260506192903 | 14 | 182 | 4.8 | 4.8 | 0.00 | 0.00 | 0.30 | 91 | 983.0 |
| 20260506192403 | 15 | 194 | 1.6 | 3.2 | 0.18 | 0.00 | 0.30 | 91 | 983.0 |
| 20260506191903 | 15 | 188 | 3.2 | 4.8 | 0.00 | 0.00 | 0.28 | 90 | 984.0 |
| 20260506191403 | 15 | 187 | 4.8 | 4.8 | 0.13 | 0.00 | 0.28 | 90 | 984.0 |
| 20260506190904 | 15 | 175 | 4.8 | 4.8 | 0.13 | 0.00 | 0.28 | 91 | 984.0 |
| 20260506190403 | 15 | 180 | 1.6 | 3.2 | 0.00 | 0.00 | 0.25 | 90 | 984.0 |
| 20260506185902 | 15 | 179 | 3.2 | 4.8 | 0.18 | 0.00 | 0.25 | 90 | 984.0 |
| 20260506185402 | 15 | 192 | 3.2 | 3.2 | 0.18 | 0.00 | 0.25 | 90 | 984.0 |
| 20260506184902 | 15 | 188 | 3.2 | 6.4 | 0.13 | 0.00 | 0.23 | 90 | 984.0 |
| 20260506184402 | 15 | 192 | 0.0 | 4.8 | 0.13 | 0.00 | 0.23 | 90 | 983.0 |
| 20260506183902 | 15 | 187 | 3.2 | 4.8 | 0.00 | 0.00 | 0.20 | 90 | 983.0 |
| 20260506183402 | 15 | 196 | 3.2 | 3.2 | 0.00 | 0.00 | 0.20 | 90 | 984.0 |
| 20260506182902 | 15 | 175 | 1.6 | 4.8 | 0.18 | 0.00 | 0.20 | 90 | 984.0 |
| 20260506182403 | 15 | 185 | 1.6 | 3.2 | 0.13 | 0.00 | 0.18 | 89 | 984.0 |
| 20260506181909 | 15 | 189 | 3.2 | 4.8 | 0.30 | 0.00 | 0.18 | 89 | 984.0 |
| 20260506181403 | 15 | 211 | 3.2 | 3.2 | 0.30 | 0.00 | 0.15 | 89 | 984.0 |
| 20260506180903 | 15 | 176 | 1.6 | 3.2 | 0.18 | 0.00 | 0.10 | 88 | 984.0 |
| 20260506180403 | 15 | 176 | 1.6 | 3.2 | 0.36 | 0.00 | 0.10 | 86 | 984.0 |
| 20260506175903 | 16 | 177 | 3.2 | 4.8 | 0.18 | 0.00 | 0.08 | 85 | 984.0 |
| 20260506175402 | 16 | 185 | 3.2 | 4.8 | 0.13 | 0.00 | 0.05 | 83 | 984.0 |
| 20260506174902 | 16 | 176 | 3.2 | 4.8 | 0.13 | 0.00 | 0.05 | 83 | 984.0 |
| 20260506174404 | 16 | 176 | 3.2 | 6.4 | 0.00 | 0.00 | 0.03 | 82 | 985.0 |
| 20260506173902 | 16 | 180 | 3.2 | 4.8 | 0.18 | 0.00 | 0.03 | 80 | 985.0 |
| 20260506173404 | 17 | 173 | 4.8 | 4.8 | 0.18 | 0.00 | 0.03 | 78 | 985.0 |
| 20260506172903 | 17 | 173 | 4.8 | 12.9 | 0.00 | 0.00 | 0.00 | 75 | 985.0 |
| 20260506172402 | 18 | 203 | 4.8 | 6.4 | 0.00 | 0.00 | 0.00 | 70 | 985.0 |
| 20260506171903 | 19 | 173 | 6.4 | 9.7 | 0.00 | 0.00 | 0.00 | 64 | 985.0 |
| 20260506171404 | 20 | 172 | 6.4 | 6.4 | 0.00 | 0.00 | 0.00 | 61 | 984.0 |
| 20260506170903 | 20 | 279 | 9.7 | 16.1 | 0.00 | 0.00 | 0.00 | 59 | 984.0 |
| 20260506170405 | 20 | 173 | 3.2 | 4.8 | 0.00 | 0.00 | 0.00 | 59 | 984.0 |
| 20260506165903 | 20 | 197 | 6.4 | 14.5 | 0.00 | 0.00 | 0.00 | 58 | 984.0 |
| 20260506165403 | 20 | 162 | 3.2 | 11.3 | 0.00 | 0.00 | 0.00 | 58 | 984.0 |
| 20260506164903 | 20 | 173 | 3.2 | 6.4 | 0.00 | 0.00 | 0.00 | 58 | 984.0 |
| 20260506164404 | 20 | 187 | 4.8 | 9.7 | 0.00 | 0.00 | 0.00 | 57 | 984.0 |
| 20260506163903 | 20 | 162 | 6.4 | 11.3 | 0.00 | 0.00 | 0.00 | 57 | 984.0 |
| 20260506163403 | 20 | 179 | 3.2 | 9.7 | 0.00 | 0.00 | 0.00 | 57 | 984.0 |
| 20260506162904 | 20 | 173 | 8.0 | 9.7 | 0.00 | 0.00 | 0.00 | 57 | 984.0 |
| 20260506162403 | 20 | 165 | 4.8 | 11.3 | 0.00 | 0.00 | 0.00 | 56 | 984.0 |
| 20260506161903 | 20 | 280 | 3.2 | 3.2 | 0.00 | 0.00 | 0.00 | 57 | 985.0 |
| 20260506161402 | 20 | 177 | 3.2 | 6.4 | 0.00 | 0.00 | 0.00 | 56 | 985.0 |
| 20260506160906 | 20 | 170 | 6.4 | 9.7 | 0.00 | 0.00 | 0.00 | 55 | 985.0 |
| 20260506160405 | 21 | 164 | 3.2 | 6.4 | 0.00 | 0.00 | 0.00 | 55 | 985.0 |
| 20260506155904 | 20 | 180 | 3.2 | 4.8 | 0.00 | 0.00 | 0.00 | 55 | 984.0 |
| 20260506155403 | 20 | 168 | 4.8 | 6.4 | 0.00 | 0.00 | 0.00 | 54 | 985.0 |
| 20260506154904 | 20 | 171 | 4.8 | 12.9 | 0.00 | 0.00 | 0.00 | 55 | 985.0 |
| 20260506154402 | 21 | 246 | 9.7 | 14.5 | 0.00 | 0.00 | 0.00 | 54 | 985.0 |
| 20260506153906 | 21 | 174 | 3.2 | 4.8 | 0.00 | 0.00 | 0.00 | 55 | 985.0 |
| 20260506153409 | 20 | 173 | 6.4 | 6.4 | 0.00 | 0.00 | 0.00 | 56 | 985.0 |
| 20260506152903 | 20 | 157 | 6.4 | 14.5 | 0.00 | 0.00 | 0.00 | 56 | 985.0 |
| 20260506152402 | 20 | 164 | 3.2 | 4.8 | 0.00 | 0.00 | 0.00 | 58 | 985.0 |
| 20260506151904 | 20 | 208 | 4.8 | 4.8 | 0.00 | 0.00 | 0.00 | 58 | 985.0 |
| 20260506151403 | 20 | 189 | 6.4 | 14.5 | 0.00 | 0.00 | 0.00 | 58 | 985.0 |
| 20260506150903 | 20 | 169 | 6.4 | 6.4 | 0.00 | 0.00 | 0.00 | 59 | 986.0 |
| 20260506150404 | 20 | 164 | 4.8 | 4.8 | 0.00 | 0.00 | 0.00 | 60 | 985.0 |
| 20260506145903 | 20 | 212 | 4.8 | 9.7 | 0.00 | 0.00 | 0.00 | 59 | 986.0 |
| 20260506145403 | 20 | 190 | 3.2 | 6.4 | 0.00 | 0.00 | 0.00 | 60 | 985.0 |
| 20260506144903 | 20 | 141 | 3.2 | 4.8 | 0.00 | 0.00 | 0.00 | 60 | 985.0 |
| 20260506144402 | 20 | 180 | 3.2 | 4.8 | 0.00 | 0.00 | 0.00 | 60 | 985.0 |
| 20260506143903 | 20 | 203 | 3.2 | 4.8 | 0.00 | 0.00 | 0.00 | 61 | 985.0 |
| 20260506143404 | 20 | 174 | 3.2 | 3.2 | 0.00 | 0.00 | 0.00 | 62 | 986.0 |
| 20260506142903 | 20 | 183 | 4.8 | 4.8 | 0.00 | 0.00 | 0.00 | 61 | 986.0 |
| 20260506142403 | 19 | 159 | 6.4 | 6.4 | 0.00 | 0.00 | 0.00 | 62 | 986.0 |
| 20260506141903 | 20 | 171 | 4.8 | 4.8 | 0.00 | 0.00 | 0.00 | 62 | 986.0 |
| 20260506141403 | 20 | 186 | 3.2 | 4.8 | 0.00 | 0.00 | 0.00 | 62 | 986.0 |
| 20260506140903 | 19 | 171 | 3.2 | 9.7 | 0.00 | 0.00 | 0.00 | 63 | 986.0 |
| 20260506140402 | 19 | 166 | 6.4 | 6.4 | 0.00 | 0.00 | 0.00 | 63 | 985.0 |
| 20260506135904 | 18 | 223 | 3.2 | 6.4 | 0.00 | 0.00 | 0.00 | 64 | 985.0 |
| 20260506135403 | 18 | 166 | 3.2 | 4.8 | 0.00 | 0.00 | 0.00 | 64 | 985.0 |
| 20260506134904 | 18 | 162 | 1.6 | 4.8 | 0.00 | 0.00 | 0.00 | 65 | 985.0 |
| 20260506134403 | 18 | 182 | 3.2 | 4.8 | 0.00 | 0.00 | 0.00 | 64 | 985.0 |
| 20260506133903 | 19 | 272 | 4.8 | 6.4 | 0.00 | 0.00 | 0.00 | 64 | 985.0 |
| 20260506133402 | 18 | 167 | 6.4 | 9.7 | 0.00 | 0.00 | 0.00 | 65 | 986.0 |
| 20260506132903 | 18 | 159 | 1.6 | 4.8 | 0.00 | 0.00 | 0.00 | 65 | 986.0 |
| 20260506132404 | 18 | 212 | 4.8 | 6.4 | 0.00 | 0.00 | 0.00 | 66 | 985.0 |
| 20260506131904 | 18 | 153 | 3.2 | 6.4 | 0.00 | 0.00 | 0.00 | 67 | 985.0 |
| 20260506131403 | 18 | 163 | 3.2 | 4.8 | 0.00 | 0.00 | 0.00 | 68 | 985.0 |
| 20260506130902 | 18 | 179 | 3.2 | 4.8 | 0.00 | 0.00 | 0.00 | 68 | 986.0 |
| 20260506130403 | 18 | 174 | 3.2 | 4.8 | 0.00 | 0.00 | 0.00 | 68 | 986.0 |
| 20260506125902 | 18 | 171 | 4.8 | 4.8 | 0.00 | 0.00 | 0.00 | 68 | 986.0 |
| 20260506125403 | 17 | 181 | 1.6 | 3.2 | 0.00 | 0.00 | 0.00 | 69 | 986.0 |
| 20260506124903 | 17 | 178 | 6.4 | 9.7 | 0.00 | 0.00 | 0.00 | 69 | 986.0 |
| 20260506124402 | 17 | 173 | 1.6 | 4.8 | 0.00 | 0.00 | 0.00 | 72 | 986.0 |
| 20260506123902 | 17 | 188 | 3.2 | 6.4 | 0.00 | 0.00 | 0.00 | 72 | 986.0 |
| 20260506123404 | 17 | 176 | 3.2 | 4.8 | 0.00 | 0.00 | 0.00 | 71 | 986.0 |
| 20260506122904 | 17 | 180 | 4.8 | 4.8 | 0.00 | 0.00 | 0.00 | 72 | 986.0 |
| 20260506122404 | 17 | 171 | 4.8 | 6.4 | 0.00 | 0.00 | 0.00 | 71 | 986.0 |
| 20260506121904 | 17 | 167 | 6.4 | 6.4 | 0.00 | 0.00 | 0.00 | 71 | 986.0 |
| 20260506121403 | 17 | 154 | 3.2 | 4.8 | 0.00 | 0.00 | 0.00 | 73 | 986.0 |
| 20260506120903 | 16 | 158 | 1.6 | 3.2 | 0.00 | 0.00 | 0.00 | 74 | 986.0 |
| 20260506120404 | 16 | 179 | 3.2 | 3.2 | 0.00 | 0.00 | 0.00 | 75 | 986.0 |
| 20260506115903 | 16 | 176 | 3.2 | 3.2 | 0.00 | 0.00 | 0.00 | 74 | 986.0 |
| 20260506115403 | 16 | 177 | 1.6 | 3.2 | 0.00 | 0.00 | 0.00 | 74 | 986.0 |
| 20260506114902 | 16 | 190 | 3.2 | 3.2 | 0.00 | 0.00 | 0.00 | 75 | 986.0 |
| 20260506114403 | 16 | 158 | 3.2 | 3.2 | 0.00 | 0.00 | 0.00 | 75 | 986.0 |
| 20260506113903 | 16 | 158 | 3.2 | 4.8 | 0.00 | 0.00 | 0.00 | 76 | 986.0 |
| 20260506113403 | 15 | 215 | 1.6 | 6.4 | 0.00 | 0.00 | 0.00 | 77 | 986.0 |
| 20260506112902 | 15 | 204 | 3.2 | 3.2 | 0.00 | 0.00 | 0.00 | 78 | 986.0 |
| 20260506112402 | 15 | 205 | 1.6 | 1.6 | 0.00 | 0.00 | 0.00 | 79 | 987.0 |
| 20260506111903 | 15 | 206 | 1.6 | 1.6 | 0.00 | 0.00 | 0.00 | 80 | 986.0 |
| 20260506111403 | 15 | 206 | 0.0 | 3.2 | 0.00 | 0.00 | 0.00 | 80 | 986.0 |
| 20260506110902 | 15 | 206 | 1.6 | 3.2 | 0.00 | 0.00 | 0.00 | 80 | 986.0 |
| 20260506110402 | 15 | 207 | 1.6 | 1.6 | 0.00 | 0.00 | 0.00 | 80 | 987.0 |
| 20260506105904 | 15 | 200 | 3.2 | 3.2 | 0.00 | 0.00 | 0.00 | 80 | 987.0 |
| 20260506105403 | 14 | 212 | 1.6 | 4.8 | 0.00 | 0.00 | 0.00 | 80 | 987.0 |
| 20260506104903 | 14 | 198 | 3.2 | 4.8 | 0.00 | 0.00 | 0.00 | 80 | 986.0 |
| 20260506104403 | 14 | 187 | 3.2 | 4.8 | 0.00 | 0.00 | 0.00 | 80 | 986.0 |
| 20260506103902 | 14 | 186 | 1.6 | 3.2 | 0.00 | 0.00 | 0.00 | 80 | 986.0 |
| 20260506103403 | 14 | 187 | 1.6 | 3.2 | 0.00 | 0.00 | 0.00 | 81 | 986.0 |
| 20260506102905 | 14 | 197 | 1.6 | 3.2 | 0.00 | 0.00 | 0.00 | 81 | 986.0 |
| 20260506102402 | 14 | 196 | 1.6 | 1.6 | 0.00 | 0.00 | 0.00 | 81 | 986.0 |
| 20260506101904 | 14 | 199 | 1.6 | 1.6 | 0.00 | 0.00 | 0.00 | 81 | 986.0 |
| 20260506101403 | 14 | 212 | 3.2 | 3.2 | 0.00 | 0.00 | 0.00 | 81 | 986.0 |
| 20260506100902 | 14 | 202 | 3.2 | 3.2 | 0.00 | 0.00 | 0.00 | 81 | 986.0 |
| 20260506100403 | 14 | 204 | 1.6 | 1.6 | 0.00 | 0.00 | 0.00 | 80 | 986.0 |
| 20260506095902 | 14 | 205 | 1.6 | 1.6 | 0.00 | 0.00 | 0.00 | 80 | 986.0 |
| 20260506095403 | 14 | 206 | 0.0 | 1.6 | 0.00 | 0.00 | 0.00 | 80 | 986.0 |
| 20260506094904 | 14 | 222 | 3.2 | 3.2 | 0.00 | 0.00 | 0.00 | 80 | 986.0 |
| 20260506094404 | 14 | 273 | 1.6 | 6.4 | 0.00 | 0.00 | 0.00 | 80 | 986.0 |
| 20260506093903 | 14 | 207 | 1.6 | 1.6 | 0.00 | 0.00 | 0.00 | 79 | 986.0 |
| 20260506093403 | 14 | 217 | 1.6 | 3.2 | 0.00 | 0.00 | 0.00 | 79 | 986.0 |
| 20260506092903 | 14 | 218 | 1.6 | 3.2 | 0.00 | 0.00 | 0.00 | 79 | 986.0 |
| 20260506092403 | 14 | 177 | 1.6 | 3.2 | 0.00 | 0.00 | 0.00 | 79 | 986.0 |
| 20260506091903 | 14 | 159 | 1.6 | 3.2 | 0.00 | 0.00 | 0.00 | 79 | 986.0 |
| 20260506091403 | 14 | 155 | 1.6 | 3.2 | 0.00 | 0.00 | 0.00 | 79 | 986.0 |
| 20260506090903 | 14 | 155 | 1.6 | 1.6 | 0.00 | 0.00 | 0.00 | 78 | 986.0 |
| 20260506090403 | 14 | 277 | 6.4 | 11.3 | 0.00 | 0.00 | 0.00 | 78 | 986.0 |
| 20260506085904 | 14 | 192 | 1.6 | 3.2 | 0.00 | 0.00 | 0.00 | 78 | 986.0 |
| 20260506085403 | 14 | 190 | 1.6 | 3.2 | 0.00 | 0.00 | 0.00 | 78 | 986.0 |
| 20260506084902 | 14 | 189 | 3.2 | 9.7 | 0.00 | 0.00 | 0.00 | 78 | 986.0 |